FW7230 Weather Reports


Display with metric or nautical units.
time (UTC)temp
F
wind
direction
speed
MPH
gust
MPH
rain 1hr
in
rain 24hr
in
rain mn
in
humidity
%
barometer
mb
20260905184343 102 255 2.0 4.0 0.00 0.00 0.00 42 1015.2
20260905183341 101 125 2.0 4.0 0.00 0.00 0.00 45 1015.3
20260905182349 101 169 2.0 3.0 0.00 0.00 0.00 48 1015.3
20260905181334 100 173 2.0 3.0 0.00 0.00 0.00 49 1015.4
20260905180332 101 214 1.0 2.0 0.00 0.00 0.00 47 1015.6
20260905175341 101 193 1.0 3.0 0.00 0.00 0.00 48 1015.7
20260905174407 101 201 1.0 3.0 0.00 0.00 0.00 45 1015.8
20260905173341 101 208 2.0 3.0 0.00 0.00 0.00 47 1015.8
20260905172350 101 211 1.0 3.0 0.00 0.00 0.00 45 1015.8
20260905171337 101 194 1.0 3.0 0.00 0.00 0.00 47 1015.9
20260905170352 101 205 2.0 4.0 0.00 0.00 0.00 46 1016.0
20260905165351 101 183 2.0 3.0 0.00 0.00 0.00 47 1015.9
20260905164338 99 188 2.0 4.0 0.00 0.00 0.00 49 1015.8
20260905163352 98 75 2.0 4.0 0.00 0.00 0.00 50 1015.9
20260905162352 98 64 1.0 4.0 0.00 0.00 0.00 51 1016.0
20260905161332 96 150 1.0 3.0 0.00 0.00 0.00 53 1016.1
20260905160351 97 50 2.0 4.0 0.00 0.00 0.00 51 1016.1
20260905155339 96 179 1.0 4.0 0.00 0.00 0.00 52 1016.1
20260905154346 96 196 0.0 3.0 0.00 0.00 0.00 53 1015.9
20260905153344 96 238 2.0 4.0 0.00 0.00 0.00 52 1015.9
20260905152410 96 208 1.0 3.0 0.00 0.00 0.00 54 1015.8
20260905151337 95 223 0.0 3.0 0.00 0.00 0.00 55 1015.7
20260905150333 95 188 1.0 2.0 0.00 0.00 0.00 53 1015.5
20260905145340 94 238 0.0 1.0 0.00 0.00 0.00 55 1015.4
20260905144348 93 110 1.0 2.0 0.00 0.00 0.00 60 1015.4
20260905143645 90 201 0.0 0.0 0.00 0.00 0.00 68 1015.2
20260905141343 88 215 0.0 0.0 0.00 0.00 0.00 74 1015.2
20260905140340 86 215 0.0 0.0 0.00 0.00 0.00 77 1015.1
20260905135343 84 204 0.0 0.0 0.00 0.00 0.00 83 1015.2
20260905134356 82 170 0.0 0.0 0.00 0.00 0.00 90 1015.3
20260905133351 80 63 0.0 0.0 0.00 0.00 0.00 93 1015.2
20260905132916 78 41 0.0 0.0 0.00 0.00 0.00 97 1015.1
20260905130357 77 41 0.0 0.0 0.00 0.00 0.00 99 1015.0
20260905125337 75 41 0.0 0.0 0.00 0.00 0.00 99 1014.8
20260905124338 74 41 0.0 0.0 0.00 0.00 0.00 99 1014.8
20260905123355 71 41 0.0 0.0 0.00 0.00 0.00 99 1014.7
20260905123146 70 41 0.0 0.0 0.00 0.00 0.00 99 1014.5
20260905121343 69 41 0.0 0.0 0.00 0.00 0.00 98 1014.6
20260905120400 69 41 0.0 0.0 0.00 0.00 0.00 98 1014.2
20260905111344 69 41 0.0 0.0 0.00 0.00 0.00 98 1014.1
20260905110645 70 41 0.0 0.0 0.00 0.00 0.00 98 1014.0
20260905105345 70 41 0.0 0.0 0.00 0.00 0.00 98 1014.0
20260905104332 70 16 0.0 0.0 0.00 0.00 0.00 98 1013.9
20260905103352 70 16 0.0 0.0 0.00 0.00 0.00 98 1013.9
20260905102917 70 5 0.0 0.0 0.00 0.00 0.00 98 1013.8
20260905101338 70 295 0.0 0.0 0.00 0.00 0.00 98 1013.7
20260905100353 70 295 0.0 0.0 0.00 0.00 0.00 98 1013.7
20260905095334 70 295 0.0 0.0 0.00 0.00 0.00 98 1013.7
20260905094344 70 295 0.0 0.0 0.00 0.00 0.00 98 1013.8
20260905093917 70 295 0.0 0.0 0.00 0.00 0.00 98 1013.8
20260905091647 70 295 0.0 0.0 0.00 0.00 0.00 97 1013.9
20260905090647 70 295 0.0 0.0 0.00 0.00 0.00 97 1013.9
20260905085335 70 295 0.0 0.0 0.00 0.00 0.00 97 1014.0
20260905084402 71 295 0.0 0.0 0.00 0.00 0.00 97 1013.9
20260905083418 71 295 0.0 0.0 0.00 0.00 0.00 96 1013.9
20260905081345 71 295 0.0 0.0 0.00 0.00 0.00 96 1013.9
20260905080341 71 295 0.0 0.0 0.00 0.00 0.00 96 1013.9
20260905075347 72 295 0.0 0.0 0.00 0.00 0.00 96 1013.9
20260905074333 72 295 0.0 0.0 0.00 0.00 0.00 96 1014.0
20260905073331 72 295 0.0 0.0 0.00 0.00 0.00 96 1013.9
20260905072335 72 295 0.0 0.0 0.00 0.00 0.00 95 1014.0
20260905071341 72 295 0.0 0.0 0.00 0.00 0.00 95 1014.0
20260905070339 72 295 0.0 0.0 0.00 0.00 0.00 94 1014.0
20260905065345 73 295 0.0 0.0 0.00 0.00 0.00 94 1014.0
20260905064647 73 295 0.0 0.0 0.00 0.00 0.00 93 1014.2
20260905062331 74 295 0.0 0.0 0.00 0.00 0.00 93 1014.1
20260905061648 74 295 0.0 0.0 0.00 0.00 0.00 92 1014.2
20260905060345 74 295 0.0 0.0 0.00 0.00 0.00 92 1014.1
20260905055332 75 295 0.0 0.0 0.00 0.00 0.00 91 1014.1
20260905054337 75 294 0.0 0.0 0.00 0.00 0.00 90 1014.1
20260905053335 76 293 0.0 0.0 0.00 0.00 0.00 88 1014.1
20260905052342 77 293 0.0 0.0 0.00 0.00 0.00 87 1013.9
20260905051348 77 294 0.0 0.0 0.00 0.00 0.00 87 1013.9
20260905050347 77 294 0.0 1.0 0.00 0.00 0.00 89 1014.0
20260905045348 76 294 0.0 1.0 0.00 0.00 0.00 91 1013.9
20260905044336 75 318 0.0 0.0 0.00 0.00 0.00 93 1013.9
20260905043355 74 318 0.0 2.0 0.00 0.00 0.00 94 1013.9
20260905042335 74 18 0.0 1.0 0.00 0.00 0.00 93 1013.9
20260905041907 74 18 0.0 0.0 0.00 0.00 0.00 92 1013.9
20260905040648 75 18 0.0 0.0 0.00 0.00 0.00 92 1013.9
20260905034648 75 18 0.0 1.0 0.00 0.00 0.00 91 1013.9
20260905033348 76 18 1.0 1.0 0.00 0.00 0.00 91 1013.9
20260905032337 76 18 0.0 1.0 0.00 0.00 0.00 90 1013.9
20260905031345 76 18 1.0 1.0 0.00 0.00 0.00 90 1013.8
20260905030342 77 18 1.0 2.0 0.00 0.00 0.00 89 1013.8
20260905025348 77 18 0.0 1.0 0.00 0.00 0.00 88 1013.6
20260905024337 78 18 0.0 0.0 0.00 0.00 0.00 87 1013.6
20260905023356 78 18 1.0 2.0 0.00 0.00 0.00 87 1013.5
20260905022337 79 205 0.0 2.0 0.00 0.00 0.00 85 1013.4
20260905021341 79 205 1.0 2.0 0.00 0.00 0.00 83 1013.4
20260905020359 80 205 1.0 1.0 0.00 0.00 0.00 82 1013.2
20260905015345 81 205 1.0 1.0 0.00 0.00 0.00 81 1013.1
20260905014334 81 205 1.0 1.0 0.00 0.00 0.00 79 1012.9
20260905013353 82 205 0.0 1.0 0.00 0.00 0.00 76 1012.8
20260905012337 83 205 0.0 0.0 0.00 0.00 0.00 72 1012.8
20260905011337 84 205 0.0 0.0 0.00 0.00 0.00 68 1012.8
20260905010333 86 205 0.0 0.0 0.00 0.00 0.00 66 1012.8
20260905010149 88 205 0.0 0.0 0.00 0.00 0.00 63 1012.7
20260905004345 90 205 0.0 0.0 0.00 0.00 0.00 59 1012.7
20260905003342 92 205 0.0 1.0 0.00 0.00 0.00 56 1012.6
20260905002348 94 205 0.0 1.0 0.00 0.00 0.00 55 1012.6
20260905001335 94 205 0.0 2.0 0.00 0.00 0.00 54 1012.6
20260905000333 95 216 1.0 3.0 0.00 0.00 0.00 53 1012.7
20260904235341 95 222 1.0 4.0 0.00 0.00 0.00 52 1012.7
20260904234911 96 201 2.0 6.0 0.00 0.00 0.00 50 1012.7
20260904232331 96 200 2.0 8.0 0.00 0.00 0.00 51 1012.7
20260904231336 96 207 4.0 8.0 0.00 0.00 0.00 49 1012.8
20260904230354 97 225 5.0 9.0 0.00 0.00 0.00 48 1012.8
20260904225335 97 212 7.0 11.0 0.00 0.00 0.00 47 1012.8
20260904224339 97 210 5.0 10.0 0.00 0.00 0.00 48 1012.8
20260904223338 97 180 5.0 7.0 0.00 0.00 0.00 48 1012.8
20260904222919 97 215 5.0 9.0 0.00 0.00 0.00 47 1012.7
20260904221336 97 166 6.0 11.0 0.00 0.00 0.00 48 1012.6
20260904220354 97 207 5.0 10.0 0.00 0.00 0.00 47 1012.7
20260904215335 98 195 5.0 11.0 0.00 0.00 0.00 48 1012.7
20260904214338 98 155 6.0 13.0 0.00 0.00 0.00 47 1012.7
20260904213337 98 191 5.0 11.0 0.00 0.00 0.00 49 1012.6
20260904212344 98 201 6.0 9.0 0.00 0.00 0.00 48 1012.7
20260904211334 98 231 5.0 11.0 0.00 0.00 0.00 49 1012.7
20260904210351 98 207 6.0 11.0 0.00 0.00 0.00 48 1012.8
20260904205332 98 256 6.0 12.0 0.00 0.00 0.00 49 1012.8
20260904204649 97 215 6.0 14.0 0.00 0.00 0.00 49 1012.9
20260904202344 98 187 6.0 11.0 0.00 0.00 0.00 50 1012.9
20260904201333 98 249 5.0 10.0 0.00 0.00 0.00 51 1013.0
20260904200330 97 203 6.0 11.0 0.00 0.00 0.00 51 1013.1
20260904195337 97 194 8.0 12.0 0.00 0.00 0.00 51 1013.1
20260904194344 97 191 8.0 13.0 0.00 0.00 0.00 50 1013.3
20260904193341 97 173 5.0 12.0 0.00 0.00 0.00 52 1013.4
20260904192921 97 222 5.0 10.0 0.00 0.00 0.00 51 1013.5
20260904191338 97 190 7.0 13.0 0.00 0.00 0.00 51 1013.5
20260904190356 97 215 6.0 11.0 0.00 0.00 0.00 51 1013.5
20260904185334 97 166 6.0 12.0 0.00 0.00 0.00 52 1013.6